Regional Weather Roundup
Issued by NWS

Home | Current Version | Previous Version | Graphics & Text | Print | Product List | Glossary On
Versions: 1 2 3 4 5 6 7 8 9 10 11 12 13 14 15 16 17 18 19 20 21 22 23 24 25 26 27 28
000
ASUS45 KCYS 300510
RWRWY

WYOMING REGIONAL WEATHER ROUNDUP
NATIONAL WEATHER SERVICE CHEYENNE WY
1100 PM MDT MON AUG 29 2016

NOTE:  "FAIR" INDICATES FEW OR NO CLOUDS BELOW 12,000 FEET
WITH NO SIGNIFICANT WEATHER AND/OR OBSTRUCTIONS TO VISIBILITY.

WYZ001-300600-
YELLOWSTONE NATIONAL PARK

CITY           SKY/WX    TMP DP  RH WIND       PRES   REMARKS
LK YELLOWSTONE   N/A     49  32  52 NW3       30.47S
W YELLOWSTONE  NOT AVBL

$$
WYZ002>013-054>058-071-098>099-300600-
NORTHERN WYOMING

CITY           SKY/WX    TMP DP  RH WIND       PRES   REMARKS
JACKSON        FAIR      59  30  33 N6        30.34S
CODY           FAIR      72  39  30 SW10      30.24S
GREYBULL       FAIR      73  38  27 CALM      30.16R
WORLAND        FAIR      72  34  24 SE12      30.18R
SHERIDAN       FAIR      66  48  52 S5        30.19F
BUFFALO        FAIR      73  42  32 S15       30.29S
GILLETTE       FAIR      70  53  54 S18       30.25F
HULETT         FAIR      66  52  59 E9        30.29S
NEWCASTLE      FAIR      63  52  67 CALM      30.30R

$$
WYZ014>020-022>026-101>103-300600-
CENTRAL WYOMING

CITY           SKY/WX    TMP DP  RH WIND       PRES   REMARKS
BIG PINEY      FAIR      66  28  24 VRB3      30.40R
PINEDALE       FAIR      54  32  43 CALM      30.41R
DUBOIS         FAIR      61  28  29 NW3       30.41R
LANDER         FAIR      71  33  24 SE6       30.29S
RIVERTON       FAIR      68  32  26 CALM      30.28S
CASPER         FAIR      65  43  44 E5        30.32S
DOUGLAS        FAIR      61  47  59 E6        30.33R

$$
WYZ021-027>030-104>119-300600-
SOUTHERN WYOMING

CITY           SKY/WX    TMP DP  RH WIND       PRES   REMARKS
EVANSTON       FAIR      65  20  17 SW5       30.37R
FORT BRIDGER   FAIR      68  19  15 CALM      30.39R
ROCK SPRINGS   FAIR      68  30  24 SE13      30.36S
DIXON          FAIR      58  35  41 NE10      30.40S
RAWLINS        FAIR      57  28  33 E9        30.42R
SARATOGA       FAIR      52  36  54 S5        30.44S
LARAMIE        FAIR      56  39  53 SE5       30.45S
CHEYENNE       FAIR      59  45  59 CALM      30.39S
TORRINGTON     FAIR      62  58  86 E10       30.28R
PINE BLUFFS    FAIR      59  46  63 CALM      30.34S

$$




USA.gov is the U.S. government's official web portal to all federal, state and local government web resources and services.